{"data":{"norad_id":67711,"epoch":"2026-09-19T12:56:55.361760Z","epoch_age_seconds":149423,"freshness":"FRESH","line1":"1 67711U 26025U   26262.53952965  .00016514  00000+0  51264-3 0  9996","line2":"2 67711  97.2859  12.5333 0001542 105.7238 254.4175 15.33450485 35733","mean_motion":15.33450485,"eccentricity":0.0001542,"inclination_deg":97.2859,"raan_deg":12.5333,"arg_perigee_deg":105.7238,"mean_anomaly_deg":254.4175,"bstar":0.00051264,"rev_number":3573,"period_min":93.905868763673,"perigee_km":464.47156205936,"apogee_km":466.58214799225,"semimajor_km":6843.6638550258,"source":"CELESTRAK","updated_at":"2026-09-20T09:00:43.654805Z"}}